TimeEDT,TemperatureF,Dew PointF,Humidity,Sea Level PressureIn,VisibilityMPH,Wind Direction,Wind SpeedMPH,Gust SpeedMPH,PrecipitationIn,Events,Conditions,WindDirDegrees,DateUTC
12:54 AM,60.1,57.9,93,30.09,10.0,Calm,Calm,-,N/A,,Clear,0,2013-07-26 04:54:00
1:54 AM,60.1,57.0,90,30.09,10.0,Calm,Calm,-,N/A,,Overcast,0,2013-07-26 05:54:00
2:54 AM,60.1,57.9,93,30.09,10.0,Calm,Calm,-,N/A,,Overcast,0,2013-07-26 06:54:00
3:54 AM,60.1,57.9,93,30.08,10.0,Calm,Calm,-,N/A,,Overcast,0,2013-07-26 07:54:00
4:54 AM,60.1,57.9,93,30.09,10.0,Calm,Calm,-,N/A,,Overcast,0,2013-07-26 08:54:00
5:54 AM,59.0,57.9,96,30.08,10.0,Calm,Calm,-,N/A,,Overcast,0,2013-07-26 09:54:00
6:54 AM,60.1,57.9,93,30.08,10.0,Calm,Calm,-,N/A,,Overcast,0,2013-07-26 10:54:00
7:54 AM,61.0,57.9,90,30.08,10.0,Calm,Calm,-,N/A,,Overcast,0,2013-07-26 11:54:00
8:54 AM,63.0,55.0,75,30.07,10.0,Calm,Calm,-,N/A,,Overcast,0,2013-07-26 12:54:00
9:54 AM,64.0,55.0,73,30.06,10.0,ENE,4.6,-,N/A,,Overcast,60,2013-07-26 13:54:00
10:54 AM,64.9,55.0,70,30.06,10.0,Calm,Calm,-,N/A,,Overcast,0,2013-07-26 14:54:00
11:54 AM,64.9,57.9,78,30.06,10.0,Calm,Calm,-,0.00,Rain,Light Rain,0,2013-07-26 15:54:00
12:54 PM,66.0,57.9,75,30.04,10.0,Calm,Calm,-,0.00,,Overcast,0,2013-07-26 16:54:00
1:54 PM,66.9,57.9,73,30.03,10.0,Calm,Calm,-,N/A,,Mostly Cloudy,0,2013-07-26 17:54:00
2:54 PM,69.1,57.0,65,30.02,10.0,WNW,5.8,-,N/A,,Clear,290,2013-07-26 18:54:00
3:54 PM,70.0,59.0,68,30.01,10.0,WSW,4.6,-,N/A,,Overcast,250,2013-07-26 19:54:00
4:54 PM,70.0,57.9,65,30.01,10.0,NNW,3.5,-,N/A,,Overcast,340,2013-07-26 20:54:00
5:54 PM,71.1,59.0,66,30.01,10.0,WNW,5.8,-,N/A,,Clear,290,2013-07-26 21:54:00
6:54 PM,70.0,59.0,68,30.02,10.0,WNW,4.6,-,N/A,,Clear,290,2013-07-26 22:54:00
7:54 PM,66.9,61.0,81,30.01,10.0,Calm,Calm,-,N/A,,Clear,0,2013-07-26 23:54:00
8:54 PM,63.0,60.1,90,30.02,10.0,Calm,Calm,-,N/A,,Clear,0,2013-07-27 00:54:00
9:54 PM,61.0,59.0,93,30.03,10.0,Calm,Calm,-,N/A,,Clear,0,2013-07-27 01:54:00
10:54 PM,60.1,59.0,96,30.04,10.0,Calm,Calm,-,N/A,,Clear,0,2013-07-27 02:54:00
11:54 PM,59.0,57.9,96,30.05,10.0,Calm,Calm,-,N/A,,Clear,0,2013-07-27 03:54:00